Weather History for Fort Indiantown Gap, PA

Change the Weather History Date:

Sunday, November 3, 2013

  Actual Average Record
Temperature  
Mean Temperature 42 °F -  
Max Temperature 50 °F 55 °F 78 °F (2003)
Min Temperature 33 °F 38 °F 26 °F (2010)
Degree Days  
Heating Degree Days 23    
Moisture  
Dew Point 29 °F    
Average Humidity 54    
Maximum Humidity 74    
Minimum Humidity 29    
Precipitation  
Precipitation 0.00 in - - ()
Sea Level Pressure  
Sea Level Pressure 30.15 in    
Wind  
Wind Speed 9 mph (North)    
Max Wind Speed 14 mph    
Max Gust Speed 26 mph    
Visibility 10 miles    
Events      
Averages and records for this station are not official NWS values.
T = Trace of Precipitation, MM = Missing Value Source: NWS Daily Summary

Daily Weather History Graph

Daily Weather History Graph

Search for Another Location

Airport:

Trip Planner

Search our weather history database for the weather conditions in past years. The results will help you decide how hot, cold, wet, or windy it might be!

Date:

Astronomy

Nov. 03, 2013 Rise Set
Actual Time 6:38 AM EST 5:00 PM EST
Civil Twilight 6:10 AM EST 5:28 PM EST
Nautical Twilight 5:37 AM EST 6:01 PM EST
Astronomical Twilight 5:06 AM EST 6:32 PM EST
Moon 6:40 AM EST (11/3) 5:13 PM EST (11/3)
Length of Visible Light 11h 18m
Length of Day
10h 21m
New Moon, 0% of the Moon is Illuminated
Nov 3
New Moon
Nov 10
First Quarter
Nov 17
Full
Nov 25
Last Quarter
Dec 2
New

Hourly Weather History & Observations

Time (EST) Temp. Windchill Dew Point Humidity Pressure Visibility Wind Dir Wind Speed Gust Speed Precip Events Conditions
12:56 AM 50.0 °F - 41.0 °F 71% 29.85 in 10.0 mi West 10.4 mph - N/A   Scattered Clouds
1:33 AM 50.0 °F - 41.0 °F 71% 29.87 in 10.0 mi West 5.8 mph - N/A   Overcast
1:58 AM 49.8 °F - 41.2 °F 72% 29.89 in 10.0 mi WNW 5.8 mph - N/A   Overcast
1:58 AM 48.6 °F - 40.5 °F 74% 29.92 in 10.0 mi North 11.5 mph 17.3 mph N/A   Overcast
2:12 AM 48.2 °F - 39.2 °F 71% 29.91 in 10.0 mi NNW 9.2 mph - N/A   Overcast
2:30 AM 46.4 °F 41.1 °F 37.4 °F 71% 29.92 in 10.0 mi NNW 11.5 mph 16.1 mph N/A   Overcast
2:46 AM 46.4 °F 40.7 °F 37.4 °F 71% 29.93 in 10.0 mi North 12.7 mph 18.4 mph N/A   Overcast
2:58 AM 46.0 °F 41.0 °F 37.0 °F 71% 29.95 in 10.0 mi North 10.4 mph 19.6 mph N/A   Overcast
3:58 AM 45.5 °F 39.9 °F 34.7 °F 66% 29.99 in 10.0 mi NNW 11.5 mph 26.5 mph N/A   Overcast
4:58 AM 44.4 °F 39.0 °F 32.0 °F 62% 30.01 in 10.0 mi NNE 10.4 mph 17.3 mph N/A   Overcast
5:58 AM 43.7 °F 39.1 °F 32.4 °F 64% 30.06 in 10.0 mi NNW 8.1 mph 21.9 mph N/A   Overcast
6:58 AM 43.0 °F 37.2 °F 31.6 °F 64% 30.09 in 10.0 mi North 10.4 mph 20.7 mph N/A   Overcast
11:28 AM 48.2 °F - 28.4 °F 46% 30.21 in 10.0 mi NNW 12.7 mph - N/A   Clear
11:58 AM 48.6 °F - 24.8 °F 39% 30.21 in 10.0 mi North 9.2 mph - N/A   Clear
12:58 PM 49.1 °F - 23.0 °F 36% 30.24 in 10.0 mi North 13.8 mph 25.3 mph N/A   Clear
1:58 PM 50.2 °F - 22.5 °F 34% 30.24 in 10.0 mi NNW 4.6 mph 19.6 mph N/A   Clear
2:58 PM 49.6 °F - 20.8 °F 32% 30.26 in 10.0 mi North 10.4 mph - N/A   Clear
3:58 PM 47.8 °F - 16.7 °F 29% 30.28 in 10.0 mi Variable 6.9 mph 17.3 mph N/A   Clear
4:58 PM 45.3 °F 42.3 °F 17.8 °F 33% 30.31 in 10.0 mi North 5.8 mph - N/A   Clear
5:58 PM 42.8 °F 37.5 °F 18.7 °F 38% 30.34 in 10.0 mi NNE 9.2 mph - N/A   Clear
6:58 PM 40.1 °F 33.2 °F 19.8 °F 44% 30.38 in 10.0 mi NNE 11.5 mph - N/A   Clear
7:58 PM 38.3 °F 33.9 °F 19.0 °F 46% 30.41 in 10.0 mi Variable 5.8 mph - N/A   Clear
8:58 PM 36.3 °F 30.1 °F 19.0 °F 50% 30.43 in 10.0 mi NE 8.1 mph - N/A   Clear
9:58 PM 34.9 °F 29.0 °F 19.0 °F 52% 30.47 in 10.0 mi North 6.9 mph - N/A   Clear
10:58 PM 33.6 °F - 18.5 °F 54% 30.49 in 10.0 mi Variable 2.3 mph - N/A   Clear